QPF
0.00 0.00 0.00 0.00 0.00 0.00 0.00 0.00 0.00 0.00 0.00 0.00 0.00 0.00 0.00 0.00 0.00 0.00 0.00 0.00 0.00 0.00 0.00 0.00 0.00 0.00 0.00 0.00 0.00 0.00 0.00 0.00 0.00 0.00 0.00 0.00 0.00 0.00 0.00 0.00 0.00 0.00 0.00 0.00
0.00 0.00 0.00 0.00 0.00 0.00 0.00 0.00 0.00 0.00 0.00 0.00 0.00 0.00 0.00 0.00 0.00 0.00 0.00 0.00 0.00 0.00 0.00 0.00 0.00 0.00 0.00 0.00 0.00 0.00 0.00 0.00 0.00 0.00 0.00 0.00 0.00 0.00 0.00 0.00 0.00 0.00 0.00 0.00
0.00 0.00 0.00 0.00 0.00 0.00 0.00 0.00 0.00 0.00 0.00 0.00 0.00 0.00 0.00 0.00 0.00 0.00 0.00 0.00 0.00 0.00 0.00 0.00 0.00 0.00 0.00 0.00 0.00 0.00 0.00 0.00 0.00 0.00 0.00 0.00 0.00 0.00 0.00 0.00 0.00 0.00 0.00 0.00
0.00 0.00 0.00 0.00 0.00 0.00 0.00 0.00 0.00 0.00 0.00 0.00 0.00 0.00 0.00 0.00 0.00 0.00 0.00 0.00 0.00 0.00 0.00 0.00 0.00 0.00 0.00 0.00 0.00 0.00 0.00 0.00 0.00 0.00 0.00 0.00 0.00 0.00 0.00 0.00 0.00 0.00 0.00 0.00
0.00 0.00 0.00 0.00 0.00 0.00 0.00 0.00 0.00 0.00 0.00 0.00 0.00 0.00 0.00 0.00 0.00 0.00 0.00 0.00 0.00 0.00 0.00 0.00 0.00 0.00 0.00 0.00 0.00 0.00 0.00 0.00 0.00 0.00 0.00 0.00 0.00 0.00 0.00 0.00 0.00 0.00 0.00 0.00
0.00 0.00 0.00 0.00 0.00 0.00 0.00 0.00 0.00 0.00 0.01 0.01 0.00 0.00 0.00 0.00 0.00 0.00 0.00 0.00 0.00 0.00 0.00 0.00 0.00 0.00 0.00 0.00 0.00 0.00 0.00 0.00 0.00 0.00 0.00 0.00 0.00 0.00 0.00 0.00 0.00 0.00 0.00 0.00
0.00 0.00 0.00 0.00 0.00 0.00 0.00 0.00 0.00 0.00 0.00 0.00 0.00 0.00 0.00 0.00 0.00 0.00 0.00 0.00 0.00 0.00 0.00 0.00 0.00 0.00 0.00 0.00 0.00 0.01 0.02 0.02 0.01 0.00 0.00 0.00 0.00 0.00 0.00 0.00 0.00 0.00 0.00 0.00
0.00 0.00 0.00 0.00 0.00 0.00 0.00 0.00 0.00 0.00 0.00 0.00 0.00 0.00 0.00 0.00 0.00 0.00 0.00 0.00 0.00 0.00 0.00 0.00 0.00 0.00 0.00 0.00 0.00 0.00 0.02 0.02 0.01 0.00 0.00 0.00 0.00 0.00 0.00 0.00 0.00 0.00 0.00 0.00
0.00 0.00 0.00 0.00 0.00 0.00 0.00 0.00 0.00 0.00 0.00 0.00 0.00 0.00 0.00 0.00 0.00 0.00 0.00 0.00 0.00 0.00 0.00 0.00 0.00 0.00 0.00 0.00 0.00 0.00 0.02 0.02 0.03 0.01 0.00 0.00 0.00 0.00 0.00 0.00 0.00 0.00 0.00 0.00
0.00 0.00 0.00 0.00 0.00 0.00 0.00 0.00 0.00 0.00 0.00 0.00 0.00 0.00 0.00 0.00 0.00 0.00 0.00 0.00 0.00 0.00 0.00 0.00 0.00 0.00 0.00 0.00 0.00 0.00 0.00 0.00 0.03 0.04 0.02 0.00 0.00 0.00 0.00 0.00 0.00 0.00 0.00 0.00
0.00 0.00 0.00 0.00 0.00 0.00 0.00 0.00 0.00 0.00 0.00 0.00 0.00 0.00 0.00 0.00 0.00 0.00 0.00 0.00 0.00 0.00 0.00 0.00 0.00 0.00 0.00 0.00 0.00 0.00 0.00 0.00 0.00 0.01 0.04 0.01 0.00 0.00 0.00 0.00 0.00 0.02 0.02 0.00
0.00 0.00 0.00 0.00 0.00 0.00 0.00 0.00 0.00 0.00 0.00 0.00 0.00 0.00 0.00 0.00 0.00 0.00 0.00 0.00 0.00 0.00 0.00 0.00 0.00 0.00 0.00 0.00 0.00 0.00 0.00 0.00 0.00 0.01 0.04 0.01 0.00 0.00 0.00 0.00 0.00 0.00 0.00 0.00
0.00 0.00 0.00 0.00 0.00 0.00 0.00 0.00 0.00 0.00 0.00 0.00 0.00 0.00 0.00 0.00 0.00 0.00 0.00 0.00 0.00 0.00 0.00 0.00 0.00 0.00 0.00 0.00 0.00 0.00 0.00 0.01 0.00 0.00 0.00 0.01 0.01 0.00 0.00 0.01 0.01 0.02 0.02 0.00
0.00 0.00 0.00 0.00 0.00 0.00 0.00 0.00 0.00 0.00 0.00 0.00 0.00 0.00 0.00 0.00 0.00 0.00 0.00 0.00 0.00 0.00 0.00 0.00 0.00 0.00 0.00 0.00 0.00 0.00 0.00 0.00 0.00 0.00 0.00 0.00 0.00 0.01 0.05 0.10 0.19 0.14 0.08 0.01
0.00 0.00 0.00 0.00 0.00 0.00 0.00 0.00 0.00 0.00 0.00 0.00 0.00 0.00 0.00 0.00 0.00 0.00 0.00 0.00 0.00 0.00 0.00 0.00 0.00 0.00 0.00 0.00 0.00 0.00 0.00 0.00 0.00 0.00 0.00 0.03 0.02 0.00 0.01 0.09 0.08 0.03 0.03 0.03
0.00 0.00 0.00 0.00 0.00 0.00 0.00 0.00 0.00 0.00 0.00 0.00 0.00 0.00 0.00 0.00 0.00 0.00 0.00 0.00 0.00 0.00 0.00 0.00 0.00 0.00 0.00 0.00 0.00 0.00 0.00 0.00 0.00 0.00 0.00 0.01 0.04 0.06 0.05 0.02 0.07 0.09 0.03 0.00
0.00 0.00 0.00 0.00 0.00 0.00 0.00 0.00 0.00 0.00 0.00 0.00 0.00 0.00 0.00 0.00 0.00 0.00 0.00 0.00 0.00 0.00 0.00 0.00 0.00 0.00 0.00 0.00 0.00 0.00 0.00 0.00 0.00 0.00 0.00 0.00 0.02 0.08 0.12 0.11 0.12 0.18 0.11 0.02
0.00 0.00 0.00 0.00 0.00 0.00 0.00 0.00 0.00 0.00 0.00 0.00 0.00 0.00 0.00 0.00 0.00 0.00 0.00 0.00 0.00 0.00 0.00 0.00 0.00 0.00 0.00 0.00 0.00 0.00 0.00 0.00 0.00 0.00 0.00 0.00 0.00 0.01 0.07 0.16 0.19 0.22 0.16 0.10
0.00 0.00 0.00 0.00 0.00 0.00 0.00 0.00 0.00 0.00 0.00 0.00 0.00 0.00 0.00 0.00 0.00 0.00 0.00 0.00 0.00 0.00 0.00 0.00 0.00 0.00 0.00 0.00 0.00 0.00 0.00 0.00 0.00 0.00 0.00 0.00 0.00 0.00 0.00 0.01 0.02 0.04 0.08 0.11
0.00 0.00 0.00 0.00 0.00 0.00 0.00 0.00 0.00 0.00 0.00 0.00 0.00 0.00 0.00 0.00 0.00 0.00 0.00 0.00 0.00 0.00 0.00 0.00 0.00 0.00 0.00 0.00 0.00 0.00 0.00 0.00 0.00 0.00 0.00 0.00 0.00 0.00 0.00 0.00 0.00 0.00 0.01 0.01
0.00 0.00 0.00 0.00 0.00 0.00 0.00 0.00 0.00 0.00 0.00 0.00 0.00 0.00 0.00 0.00 0.00 0.00 0.00 0.00 0.00 0.00 0.00 0.00 0.00 0.00 0.00 0.00 0.00 0.00 0.00 0.00 0.00 0.00 0.00 0.00 0.00 0.00 0.00 0.00 0.00 0.00 0.00 0.00
0.00 0.00 0.00 0.00 0.00 0.00 0.00 0.00 0.00 0.00 0.00 0.00 0.00 0.00 0.00 0.00 0.00 0.00 0.00 0.00 0.00 0.00 0.00 0.00 0.00 0.00 0.00 0.00 0.00 0.00 0.00 0.00 0.00 0.00 0.00 0.00 0.00 0.00 0.00 0.00 0.00 0.00 0.00 0.00
0.00 0.00 0.00 0.00 0.00 0.00 0.00 0.00 0.00 0.00 0.00 0.00 0.00 0.00 0.00 0.00 0.00 0.00 0.00 0.00 0.00 0.00 0.00 0.00 0.00 0.00 0.00 0.00 0.00 0.00 0.00 0.00 0.00 0.00 0.00 0.00 0.00 0.00 0.00 0.00 0.00 0.00 0.00 0.00
0.02 0.02 0.01 0.00 0.00 0.00 0.00 0.00 0.00 0.00 0.00 0.00 0.00 0.00 0.00 0.00 0.00 0.00 0.00 0.00 0.00 0.00 0.00 0.00 0.00 0.01 0.00 0.00 0.00 0.00 0.00 0.00 0.00 0.00 0.00 0.00 0.00 0.00 0.00 0.00 0.00 0.00 0.00 0.00
0.02 0.03 0.01 0.00 0.00 0.00 0.00 0.00 0.00 0.00 0.00 0.00 0.00 0.00 0.00 0.00 0.00 0.00 0.00 0.00 0.00 0.00 0.00 0.01 0.02 0.01 0.00 0.00 0.00 0.00 0.00 0.00 0.00 0.00 0.00 0.00 0.00 0.00 0.00 0.00 0.00 0.00 0.00 0.00
0.00 0.00 0.00 0.00 0.00 0.00 0.00 0.00 0.00 0.00 0.00 0.00 0.00 0.00 0.00 0.00 0.00 0.00 0.00 0.00 0.00 0.00 0.00 0.01 0.02 0.00 0.00 0.00 0.00 0.00 0.00 0.00 0.00 0.00 0.00 0.00 0.00 0.00 0.00 0.00 0.00 0.00 0.00 0.00
MSLP
1009.38 1010.17 1010.42 1010.61 1011.00 1011.16 1011.59 1011.88 1011.82 1011.50 1011.42 1011.88 1012.20 1012.30 1012.48 1012.58 1012.73 1012.67 1012.69 1012.60 1012.51 1012.04 1011.86 1012.44 1012.96 1013.80 1014.61 1015.28 1015.83 1016.21 1016.67 1017.16 1017.70 1018.10 1018.49 1018.80 1018.75 1018.81 1018.74 1018.57 1018.70 1018.89 1019.22 1019.27
1009.94 1009.97 1009.77 1010.14 1010.58 1010.91 1011.26 1011.46 1011.43 1011.25 1011.33 1012.21 1012.39 1012.38 1012.28 1012.32 1011.92 1011.82 1012.14 1012.39 1012.08 1011.83 1011.75 1012.11 1012.77 1013.45 1013.96 1014.74 1015.36 1015.92 1016.14 1016.57 1017.16 1017.57 1017.75 1017.82 1018.23 1018.35 1018.33 1018.29 1018.53 1018.69 1019.00 1019.14
1009.90 1009.23 1009.04 1009.62 1010.18 1010.63 1010.71 1010.89 1010.89 1011.10 1011.52 1012.19 1012.62 1012.36 1011.93 1011.67 1011.54 1011.42 1011.39 1011.54 1011.52 1011.53 1011.55 1012.00 1012.52 1012.87 1013.61 1014.23 1014.63 1015.17 1015.63 1016.13 1016.60 1017.01 1017.45 1017.65 1017.93 1018.16 1018.44 1018.44 1018.30 1018.44 1018.76 1019.02
1009.67 1008.77 1008.93 1009.21 1009.54 1009.95 1010.04 1009.56 1009.95 1010.85 1011.86 1012.46 1012.41 1012.49 1011.50 1011.10 1010.90 1010.62 1010.44 1010.63 1010.73 1010.99 1011.33 1011.67 1012.07 1012.61 1013.06 1013.39 1014.12 1014.59 1015.38 1015.85 1016.22 1016.64 1017.05 1017.26 1017.50 1017.86 1017.80 1017.88 1017.85 1018.14 1018.42 1018.62
1008.64 1008.43 1008.56 1008.79 1008.54 1008.99 1008.81 1009.06 1009.97 1011.07 1012.15 1012.84 1012.95 1012.93 1010.99 1010.80 1010.52 1009.73 1009.43 1009.37 1009.61 1010.08 1010.49 1011.15 1011.45 1011.74 1012.34 1013.16 1013.42 1013.88 1014.86 1015.53 1015.78 1016.23 1016.52 1016.97 1017.31 1017.43 1017.48 1017.67 1017.93 1018.03 1018.18 1018.39
1008.15 1007.64 1007.53 1007.29 1007.47 1007.87 1008.48 1009.84 1011.07 1012.33 1013.18 1013.47 1012.33 1012.64 1010.56 1010.09 1008.45 1008.00 1008.28 1008.18 1008.40 1009.19 1009.78 1010.19 1010.71 1011.37 1011.93 1012.67 1013.31 1013.82 1014.35 1014.98 1015.49 1015.64 1016.11 1016.54 1016.94 1017.11 1017.41 1017.71 1017.94 1018.08 1018.33 1018.57
1007.79 1007.14 1006.66 1006.52 1007.22 1007.85 1008.71 1010.41 1012.43 1013.76 1014.34 1013.60 1012.44 1012.29 1009.61 1007.59 1007.16 1006.77 1006.81 1007.01 1007.55 1007.99 1008.82 1009.69 1010.28 1010.82 1011.48 1011.98 1012.55 1013.27 1014.21 1014.51 1015.04 1015.53 1015.63 1016.09 1016.55 1016.77 1016.93 1017.06 1017.37 1017.80 1017.96 1018.18
1007.95 1006.72 1005.96 1005.71 1006.09 1006.91 1008.51 1009.66 1011.56 1012.94 1013.93 1013.39 1012.56 1010.97 1007.92 1006.35 1006.00 1006.08 1006.21 1006.50 1007.25 1007.65 1008.29 1009.00 1009.46 1009.97 1010.48 1011.15 1011.90 1012.74 1013.66 1014.16 1014.40 1014.65 1015.02 1015.43 1015.94 1016.29 1016.54 1016.68 1016.94 1017.11 1017.30 1017.28
1007.67 1006.55 1005.22 1004.92 1005.14 1005.91 1008.10 1009.46 1010.06 1012.32 1013.75 1013.36 1011.92 1009.84 1007.16 1005.97 1006.04 1006.10 1006.17 1006.51 1006.91 1007.31 1007.62 1008.11 1008.82 1009.43 1010.03 1010.56 1011.23 1011.95 1012.81 1013.17 1013.71 1013.92 1014.37 1014.83 1015.26 1015.77 1016.01 1016.30 1016.62 1016.86 1016.84 1016.88
1006.69 1006.47 1005.38 1004.95 1005.13 1006.00 1006.63 1008.12 1010.09 1011.87 1013.19 1013.32 1011.70 1010.26 1007.93 1006.14 1006.39 1006.41 1006.28 1006.43 1006.88 1007.12 1007.49 1007.96 1008.43 1008.92 1009.44 1009.82 1010.62 1011.27 1011.76 1012.29 1012.71 1013.44 1013.81 1014.19 1014.62 1015.03 1015.45 1015.87 1016.34 1016.52 1016.57 1016.61
1006.44 1006.71 1005.43 1005.29 1005.28 1005.72 1006.99 1007.82 1009.55 1011.03 1011.89 1012.37 1011.62 1009.83 1006.61 1006.01 1005.93 1006.02 1006.21 1006.39 1006.49 1006.84 1007.15 1007.52 1008.05 1008.58 1009.01 1009.46 1010.10 1010.68 1011.35 1011.94 1012.44 1012.89 1013.34 1013.71 1014.05 1014.50 1014.90 1015.37 1015.68 1016.12 1016.35 1016.25
1006.04 1006.61 1006.15 1005.35 1004.82 1005.03 1005.64 1006.59 1008.06 1010.26 1011.65 1011.70 1010.73 1008.17 1005.89 1005.41 1005.33 1005.51 1005.91 1006.29 1006.43 1006.57 1007.00 1007.47 1008.01 1008.55 1008.97 1009.46 1009.94 1010.24 1010.90 1011.32 1011.57 1012.13 1012.67 1012.83 1013.28 1013.96 1014.37 1014.72 1015.02 1015.23 1015.61 1015.70
1005.95 1006.42 1006.43 1005.48 1005.14 1005.12 1005.44 1006.08 1006.97 1008.31 1009.52 1010.52 1010.10 1007.44 1005.55 1005.02 1004.87 1005.18 1005.62 1006.20 1006.27 1006.60 1006.98 1007.35 1008.00 1008.47 1008.99 1009.47 1009.93 1010.25 1010.48 1010.63 1011.21 1011.77 1012.16 1012.49 1012.76 1013.40 1013.63 1013.98 1014.22 1014.57 1015.03 1015.26
1005.11 1006.08 1005.97 1005.21 1004.33 1004.31 1004.99 1005.47 1006.28 1007.08 1008.70 1009.06 1008.32 1006.78 1005.26 1004.72 1004.56 1004.96 1005.44 1005.92 1006.12 1006.73 1007.12 1007.51 1008.07 1008.51 1008.85 1009.26 1009.73 1010.08 1010.31 1010.61 1011.05 1011.47 1011.83 1012.15 1012.29 1012.56 1012.84 1013.29 1013.63 1013.97 1014.28 1014.62
1005.63 1006.23 1005.84 1004.86 1004.25 1004.06 1004.07 1004.49 1005.31 1006.10 1006.24 1006.90 1006.28 1006.29 1004.70 1004.03 1003.97 1004.42 1004.92 1005.66 1006.24 1006.63 1007.20 1007.62 1007.95 1008.23 1008.66 1009.04 1009.32 1009.67 1010.01 1010.40 1010.65 1011.04 1011.39 1011.48 1011.91 1011.99 1012.34 1012.70 1012.89 1013.21 1013.23 1013.63
1006.34 1006.26 1006.01 1005.32 1004.31 1004.25 1003.96 1003.55 1004.15 1004.76 1005.12 1005.28 1005.05 1004.93 1003.55 1003.50 1003.64 1004.01 1004.60 1005.24 1006.06 1006.39 1006.66 1007.37 1007.63 1008.07 1008.58 1009.04 1009.34 1009.55 1009.76 1010.00 1010.29 1010.58 1010.86 1011.27 1011.52 1011.69 1011.78 1012.08 1012.11 1012.34 1012.59 1013.13
1007.22 1006.99 1006.86 1006.10 1005.08 1004.78 1004.44 1003.30 1003.05 1003.94 1003.99 1003.95 1004.44 1003.48 1003.11 1003.38 1003.43 1003.09 1003.78 1004.41 1005.00 1005.81 1006.11 1006.62 1007.15 1007.81 1008.30 1009.03 1009.45 1009.66 1009.74 1009.79 1010.09 1010.36 1010.66 1010.90 1011.05 1011.14 1011.33 1011.53 1011.72 1011.97 1012.44 1012.79
1007.54 1007.60 1007.57 1006.85 1005.84 1004.79 1002.95 1002.48 1002.02 1002.44 1002.68 1003.05 1002.99 1002.78 1002.62 1002.39 1002.39 1002.78 1003.05 1003.73 1004.44 1004.92 1005.73 1006.40 1006.77 1007.46 1008.28 1009.22 1009.64 1009.80 1009.69 1009.93 1010.23 1010.34 1010.44 1010.59 1010.65 1010.87 1010.92 1011.09 1011.44 1011.76 1012.09 1012.52
1007.36 1007.54 1007.95 1007.77 1006.72 1005.01 1003.04 1002.77 1002.84 1002.68 1002.81 1002.65 1002.66 1002.58 1002.39 1002.68 1002.91 1002.45 1002.44 1002.85 1003.47 1004.07 1004.96 1005.63 1006.60 1007.38 1008.55 1009.32 1009.43 1009.71 1009.79 1010.03 1010.28 1010.46 1010.71 1010.80 1010.72 1010.86 1010.98 1011.05 1011.40 1011.76 1012.18 1012.51
1007.32 1007.38 1007.71 1008.33 1007.34 1005.49 1003.84 1003.03 1002.96 1002.76 1003.42 1003.62 1003.19 1003.13 1003.23 1003.35 1003.60 1001.89 1001.83 1002.52 1003.48 1004.21 1004.95 1005.99 1006.89 1007.81 1009.01 1009.19 1009.58 1009.92 1010.27 1010.49 1010.66 1010.80 1010.94 1011.09 1011.04 1011.07 1011.18 1011.29 1011.45 1011.68 1012.03 1012.28
1007.93 1008.19 1007.96 1007.71 1006.91 1005.56 1004.30 1003.95 1003.53 1004.24 1005.15 1004.52 1004.29 1003.82 1003.36 1003.34 1002.89 1002.52 1001.82 1002.36 1003.15 1003.87 1004.95 1005.97 1006.74 1007.78 1008.26 1008.90 1009.39 1009.95 1010.41 1010.66 1010.83 1010.94 1011.05 1011.18 1011.23 1011.30 1011.36 1011.50 1011.66 1011.80 1012.02 1012.32
1008.03 1008.29 1008.22 1007.69 1007.01 1006.02 1004.89 1004.41 1004.83 1005.57 1005.27 1005.07 1005.10 1004.78 1004.13 1003.36 1002.67 1002.57 1002.65 1002.58 1002.97 1004.05 1005.24 1005.57 1006.96 1008.13 1008.39 1008.55 1009.10 1009.93 1010.36 1010.57 1010.71 1010.91 1011.01 1011.21 1011.37 1011.41 1011.46 1011.63 1011.87 1011.98 1012.20 1012.64
1008.54 1008.07 1007.88 1007.60 1006.55 1005.91 1005.55 1005.54 1005.54 1005.71 1005.75 1005.41 1005.35 1004.87 1004.52 1003.78 1002.86 1002.54 1002.27 1002.92 1002.78 1003.74 1004.78 1005.84 1007.22 1007.90 1008.28 1008.65 1009.11 1009.77 1010.15 1010.42 1010.66 1010.87 1011.03 1011.21 1011.34 1011.55 1011.62 1011.78 1011.99 1012.20 1012.49 1012.88
1008.41 1008.18 1008.10 1007.57 1006.85 1006.09 1005.69 1005.74 1005.61 1005.78 1005.79 1005.55 1005.36 1005.12 1004.60 1003.91 1002.91 1002.29 1002.13 1002.68 1003.34 1003.61 1004.47 1005.73 1006.98 1007.47 1008.08 1008.69 1009.16 1009.55 1010.15 1010.49 1010.83 1011.18 1011.31 1011.63 1011.86 1012.08 1012.28 1012.37 1012.44 1012.76 1012.99 1013.15
1008.59 1008.30 1008.09 1007.58 1006.76 1006.26 1005.71 1005.49 1005.39 1005.59 1005.50 1005.20 1004.67 1004.39 1004.12 1003.48 1002.66 1002.20 1002.22 1002.76 1002.91 1003.82 1003.87 1005.24 1006.36 1006.76 1007.62 1008.32 1009.00 1009.38 1009.89 1010.42 1010.92 1011.26 1011.48 1011.89 1012.30 1012.60 1012.95 1013.46 1013.74 1013.70 1013.88 1013.89
1008.25 1007.72 1007.86 1007.27 1006.44 1006.43 1005.84 1005.22 1005.12 1005.12 1005.08 1004.96 1004.73 1004.13 1003.63 1003.49 1002.83 1002.42 1002.61 1002.91 1003.29 1003.67 1003.96 1005.01 1005.97 1006.56 1007.60 1008.24 1008.99 1009.41 1009.81 1010.33 1010.78 1011.21 1011.58 1012.02 1012.50 1013.00 1013.38 1013.75 1014.11 1014.21 1014.16 1014.02
Thickness
5762 5743 5731 5740 5741 5742 5738 5730 5731 5744 5751 5741 5736 5738 5742 5745 5746 5746 5748 5751 5754 5765 5774 5772 5768 5764 5757 5752 5750 5750 5748 5744 5742 5739 5737 5736 5737 5739 5741 5745 5745 5746 5747 5747
5745 5732 5751 5754 5746 5742 5737 5731 5731 5745 5750 5738 5736 5735 5745 5744 5749 5754 5752 5752 5758 5764 5769 5771 5766 5764 5761 5755 5752 5750 5751 5749 5746 5744 5744 5744 5742 5743 5744 5746 5747 5748 5747 5748
5731 5752 5761 5752 5743 5736 5735 5731 5733 5740 5743 5742 5734 5730 5741 5750 5753 5755 5758 5759 5763 5763 5765 5765 5765 5765 5763 5759 5757 5755 5753 5751 5750 5749 5746 5745 5745 5744 5742 5745 5748 5748 5748 5748
5740 5758 5756 5749 5742 5738 5724 5750 5754 5744 5728 5710 5738 5704 5738 5746 5749 5756 5763 5760 5764 5767 5767 5766 5766 5763 5763 5763 5761 5758 5755 5753 5751 5750 5748 5747 5744 5741 5745 5747 5750 5750 5749 5749
5741 5748 5746 5741 5746 5750 5746 5758 5749 5742 5725 5719 5720 5711 5734 5744 5741 5755 5766 5769 5771 5774 5773 5767 5768 5770 5767 5763 5762 5762 5757 5755 5755 5751 5751 5748 5745 5746 5749 5749 5748 5749 5748 5749
5749 5767 5761 5759 5763 5761 5763 5740 5726 5715 5706 5695 5720 5716 5729 5736 5756 5769 5774 5778 5781 5775 5776 5775 5774 5772 5768 5765 5760 5760 5758 5756 5755 5754 5751 5750 5747 5747 5747 5747 5746 5747 5747 5748
5744 5751 5766 5771 5756 5759 5746 5721 5676 5682 5679 5688 5714 5711 5737 5771 5775 5781 5781 5784 5785 5786 5782 5775 5772 5771 5768 5768 5766 5762 5757 5756 5756 5753 5753 5751 5749 5748 5749 5750 5749 5748 5748 5749
5718 5724 5755 5771 5764 5752 5737 5728 5689 5678 5668 5693 5710 5709 5745 5784 5791 5789 5790 5791 5787 5789 5785 5779 5779 5777 5776 5774 5770 5765 5758 5755 5758 5758 5757 5756 5753 5751 5749 5750 5750 5752 5752 5754
5712 5727 5772 5776 5777 5771 5741 5723 5735 5689 5682 5686 5704 5731 5766 5782 5782 5783 5783 5784 5784 5787 5789 5786 5781 5780 5779 5776 5773 5770 5763 5761 5761 5762 5762 5759 5756 5753 5751 5750 5750 5751 5754 5755
5743 5727 5760 5775 5776 5769 5757 5749 5716 5693 5686 5685 5696 5712 5726 5772 5770 5773 5778 5781 5780 5783 5783 5785 5783 5782 5781 5781 5777 5775 5773 5768 5767 5764 5763 5762 5760 5758 5756 5753 5750 5750 5752 5754
5744 5738 5752 5765 5754 5746 5743 5732 5714 5708 5695 5682 5681 5706 5760 5770 5778 5773 5778 5782 5782 5781 5782 5785 5783 5783 5784 5782 5778 5775 5771 5769 5767 5765 5763 5762 5760 5759 5758 5755 5753 5750 5750 5752
5750 5730 5731 5743 5767 5769 5760 5748 5731 5705 5705 5691 5693 5714 5780 5779 5782 5782 5780 5781 5782 5785 5782 5781 5778 5778 5778 5777 5776 5776 5771 5770 5770 5767 5764 5764 5763 5759 5757 5756 5755 5754 5751 5753
5747 5725 5713 5731 5747 5758 5754 5748 5742 5725 5711 5695 5695 5718 5775 5782 5787 5786 5782 5781 5782 5783 5782 5782 5780 5777 5775 5774 5772 5772 5773 5774 5771 5767 5764 5763 5761 5758 5757 5755 5755 5754 5751 5751
5756 5721 5727 5727 5746 5755 5748 5750 5742 5738 5708 5706 5710 5742 5769 5780 5782 5785 5785 5783 5784 5781 5780 5777 5775 5775 5774 5772 5770 5770 5771 5770 5767 5765 5763 5761 5760 5759 5757 5755 5755 5754 5753 5752
5739 5719 5723 5741 5752 5755 5754 5752 5741 5739 5739 5733 5742 5735 5766 5779 5782 5787 5789 5784 5781 5779 5777 5776 5775 5776 5775 5773 5772 5771 5770 5768 5765 5762 5760 5759 5755 5757 5755 5754 5754 5754 5755 5752
5725 5715 5720 5729 5746 5744 5748 5755 5749 5751 5742 5751 5747 5746 5777 5785 5786 5787 5787 5784 5779 5779 5780 5777 5777 5776 5773 5770 5768 5768 5768 5768 5765 5761 5757 5755 5753 5752 5752 5752 5754 5753 5752 5746
5705 5705 5698 5700 5720 5727 5714 5742 5749 5749 5752 5751 5737 5765 5781 5776 5780 5789 5787 5789 5786 5781 5784 5781 5778 5775 5772 5766 5763 5761 5763 5765 5762 5759 5756 5755 5755 5753 5750 5749 5749 5748 5743 5740
5692 5689 5680 5686 5705 5682 5739 5753 5765 5760 5761 5758 5766 5773 5778 5784 5790 5792 5794 5790 5787 5785 5781 5779 5778 5774 5767 5759 5757 5757 5759 5759 5757 5756 5755 5753 5753 5750 5748 5747 5744 5741 5738 5733
5682 5675 5672 5669 5668 5695 5738 5743 5743 5745 5749 5762 5762 5770 5776 5780 5782 5787 5795 5795 5791 5789 5785 5783 5777 5771 5760 5755 5757 5755 5755 5755 5753 5752 5749 5748 5749 5746 5744 5742 5738 5734 5731 5728
5665 5669 5672 5647 5660 5665 5709 5738 5740 5752 5725 5743 5757 5762 5763 5765 5750 5783 5792 5791 5785 5783 5780 5774 5769 5762 5751 5754 5752 5749 5747 5746 5744 5743 5742 5741 5742 5741 5739 5737 5735 5733 5729 5726
5648 5645 5651 5648 5654 5673 5704 5714 5726 5710 5712 5730 5741 5749 5756 5757 5767 5775 5786 5785 5783 5779 5774 5769 5764 5756 5755 5752 5749 5745 5742 5739 5738 5738 5736 5736 5736 5735 5734 5731 5729 5727 5724 5720
5633 5629 5634 5639 5647 5655 5691 5703 5706 5698 5711 5722 5728 5733 5741 5755 5766 5771 5773 5775 5776 5770 5765 5767 5755 5748 5749 5750 5747 5740 5737 5736 5735 5735 5734 5731 5729 5730 5729 5726 5723 5721 5718 5712
5614 5627 5630 5638 5652 5664 5675 5682 5690 5693 5699 5710 5716 5728 5734 5744 5757 5767 5769 5767 5773 5770 5764 5758 5748 5744 5744 5743 5741 5736 5734 5733 5732 5730 5729 5727 5725 5723 5722 5719 5717 5714 5710 5705
5610 5613 5615 5629 5643 5653 5664 5670 5680 5686 5691 5702 5710 5718 5728 5737 5753 5762 5769 5766 5763 5765 5760 5753 5745 5742 5737 5735 5733 5731 5727 5725 5723 5720 5719 5717 5715 5712 5709 5707 5705 5704 5701 5698
5593 5601 5604 5612 5628 5637 5651 5660 5671 5676 5684 5694 5707 5718 5726 5735 5749 5757 5759 5760 5763 5757 5760 5752 5743 5741 5737 5733 5729 5727 5723 5719 5715 5713 5711 5708 5703 5700 5695 5688 5684 5685 5680 5680
5586 5593 5589 5599 5619 5623 5634 5649 5659 5667 5674 5684 5694 5709 5721 5728 5741 5750 5750 5753 5753 5752 5753 5745 5739 5736 5730 5727 5722 5720 5717 5713 5709 5705 5703 5699 5694 5689 5684 5680 5675 5668 5666 5666